DW8780 Weather Reports


time (UTC)temp
C
wind
direction
speed
KPH
gust
KPH
rain 1hr
cm
rain 24hr
cm
rain mn
cm
humidity
%
barometer
mb
20260505004503 19 8 6.4 16.1 0.00 0.00 0.00 56 1012.5
20260505004002 19 9 6.4 14.5 0.00 0.00 0.00 56 1012.4
20260505003503 19 7 6.4 12.9 0.00 0.00 0.00 55 1012.5
20260505003003 20 5 6.4 14.5 0.00 0.00 0.00 54 1012.5
20260505002502 20 3 6.4 16.1 0.00 0.00 0.00 53 1012.5
20260505002003 20 3 6.4 16.1 0.00 0.00 0.00 52 1012.4
20260505001503 20 3 6.4 16.1 0.00 0.00 0.00 50 1012.4
20260505000503 20 1 4.8 14.5 0.00 0.00 0.00 46 1012.4
20260504235002 21 2 4.8 11.3 0.00 0.00 0.00 43 1012.2
20260504234502 21 2 6.4 14.5 0.00 0.00 0.00 41 1012.2
20260504234003 21 1 6.4 16.1 0.00 0.00 0.00 41 1012.1
20260504233502 21 358 4.8 16.1 0.00 0.00 0.00 40 1012.0
20260504233003 21 356 4.8 14.5 0.00 0.00 0.00 39 1011.9
20260504232503 21 357 4.8 14.5 0.00 0.00 0.00 38 1011.9
20260504231502 22 357 6.4 19.3 0.00 0.00 0.00 36 1012.0
20260504231003 22 351 4.8 17.7 0.00 0.00 0.00 36 1012.0
20260504230002 22 344 3.2 14.5 0.00 0.00 0.00 35 1012.0
20260504225003 22 345 6.4 22.5 0.00 0.00 0.00 34 1012.0
20260504224003 22 340 8.0 20.9 0.00 0.00 0.00 33 1011.9
20260504223502 23 349 9.7 35.4 0.00 0.00 0.00 33 1011.9
20260504223003 23 352 8.0 35.4 0.00 0.00 0.00 33 1012.0
20260504222502 23 353 6.4 19.3 0.00 0.00 0.00 33 1011.9
20260504222003 23 353 6.4 22.5 0.00 0.00 0.00 32 1012.1
20260504221003 23 355 8.0 20.9 0.00 0.00 0.00 32 1012.1
20260504220003 23 351 6.4 17.7 0.00 0.00 0.00 33 1012.1
20260504215503 23 355 8.0 25.7 0.00 0.00 0.00 33 1012.2
20260504215003 23 355 8.0 25.7 0.00 0.00 0.00 33 1012.3
20260504214503 23 351 4.8 14.5 0.00 0.00 0.00 34 1012.2
20260504214002 23 3 4.8 19.3 0.00 0.00 0.00 35 1012.2
20260504213503 23 354 4.8 19.3 0.00 0.00 0.00 35 1012.2
20260504213002 23 343 4.8 17.7 0.00 0.00 0.00 34 1012.3
20260504212503 23 345 6.4 17.7 0.00 0.00 0.00 34 1012.3
20260504212002 23 344 6.4 14.5 0.00 0.00 0.00 35 1012.3
20260504210503 23 359 6.4 24.1 0.00 0.00 0.00 34 1012.2
20260504210003 23 357 6.4 20.9 0.00 0.00 0.00 35 1012.3
20260504205502 23 354 6.4 19.3 0.00 0.00 0.00 33 1012.3
20260504205003 23 351 4.8 19.3 0.00 0.00 0.00 34 1012.3
20260504204502 23 346 6.4 14.5 0.00 0.00 0.00 34 1012.3
20260504204003 23 346 6.4 17.7 0.00 0.00 0.00 35 1012.4
20260504203003 23 353 6.4 19.3 0.00 0.00 0.00 34 1012.5
20260504202003 23 359 8.0 25.7 0.00 0.00 0.00 34 1012.6
20260504201504 23 6 9.7 29.0 0.00 0.00 0.00 35 1012.6
20260504201003 23 2 9.7 29.0 0.00 0.00 0.00 34 1012.6
20260504200506 23 354 6.4 27.4 0.00 0.00 0.00 34 1012.6
20260504200003 23 356 8.0 27.4 0.00 0.00 0.00 36 1012.6
20260504195502 23 1 8.0 25.7 0.00 0.00 0.00 33 1012.8
20260504195003 23 356 8.0 24.1 0.00 0.00 0.00 35 1012.9
20260504194002 23 5 9.7 25.7 0.00 0.00 0.00 35 1012.7
20260504193503 23 354 8.0 25.7 0.00 0.00 0.00 34 1012.9
20260504193003 23 338 6.4 17.7 0.00 0.00 0.00 33 1013.0
20260504191503 23 347 4.8 12.9 0.00 0.00 0.00 33 1013.2
20260504191002 23 357 6.4 22.5 0.00 0.00 0.00 34 1013.2
20260504190503 23 358 8.0 22.5 0.00 0.00 0.00 34 1013.2
20260504190003 23 353 6.4 20.9 0.00 0.00 0.00 37 1013.2
20260504185502 23 352 6.4 20.9 0.00 0.00 0.00 32 1013.4
20260504185002 23 354 4.8 17.7 0.00 0.00 0.00 35 1013.3
20260504184503 23 356 4.8 17.7 0.00 0.00 0.00 34 1013.5
20260504184002 23 350 4.8 14.5 0.00 0.00 0.00 32 1013.6
20260504183502 23 348 6.4 14.5 0.00 0.00 0.00 32 1013.6
20260504183003 23 352 4.8 14.5 0.00 0.00 0.00 32 1013.7
20260504182502 23 349 6.4 16.1 0.00 0.00 0.00 34 1013.8
20260504182003 23 350 6.4 16.1 0.00 0.00 0.00 34 1013.8
20260504181002 23 350 4.8 14.5 0.00 0.00 0.00 34 1013.8
20260504180503 23 349 4.8 14.5 0.00 0.00 0.00 33 1013.8
20260504180003 23 344 4.8 16.1 0.00 0.00 0.00 34 1013.8
20260504175503 22 348 4.8 17.7 0.00 0.00 0.00 33 1013.9
20260504175003 22 345 4.8 17.7 0.00 0.00 0.00 34 1013.8
20260504174502 22 342 4.8 14.5 0.00 0.00 0.00 33 1013.8
20260504174003 22 347 4.8 11.3 0.00 0.00 0.00 37 1013.8
20260504173503 22 347 4.8 11.3 0.00 0.00 0.00 36 1013.9
20260504173002 22 338 3.2 9.7 0.00 0.00 0.00 38 1014.1
20260504172504 22 338 4.8 14.5 0.00 0.00 0.00 34 1014.1
20260504172002 22 341 4.8 14.5 0.00 0.00 0.00 34 1014.1
20260504171503 22 336 4.8 14.5 0.00 0.00 0.00 34 1014.2
20260504171002 22 337 4.8 17.7 0.00 0.00 0.00 34 1014.3
20260504170503 22 346 6.4 17.7 0.00 0.00 0.00 33 1014.5
20260504151003 21 332 4.8 12.9 0.00 0.00 0.00 48 1015.3
20260504150503 20 326 4.8 12.9 0.00 0.00 0.00 47 1015.3
20260504141002 19 349 6.4 22.5 0.00 0.00 0.00 47 1015.4
20260504140503 19 336 6.4 19.3 0.00 0.00 0.00 50 1015.6
20260504130503 16 339 3.2 11.3 0.00 0.00 0.00 69 1016.5
20260504110503 11 15 3.2 9.7 0.00 0.00 0.00 81 1017.3
20260504100502 10 359 3.2 11.3 0.00 0.00 0.00 82 1016.9
20260504081503 10 357 4.8 11.3 0.00 0.00 0.00 82 1017.5
20260504081003 10 2 4.8 9.7 0.00 0.00 0.00 82 1017.5
20260504080503 10 10 3.2 9.7 0.00 0.00 0.00 82 1017.5
20260504050504 7 26 1.6 6.4 0.00 0.00 0.00 73 1017.6
20260504050003 7 28 3.2 6.4 0.00 0.00 0.00 73 1017.6
20260504045503 7 16 3.2 6.4 0.00 0.00 0.00 73 1017.5
20260504045002 7 13 1.6 6.4 0.00 0.00 0.00 73 1017.6
20260504044503 7 14 1.6 4.8 0.00 0.00 0.00 73 1017.5
20260504043503 7 34 1.6 4.8 0.00 0.00 0.00 72 1017.4
20260504043004 7 11 1.6 4.8 0.00 0.00 0.00 72 1017.4
20260504042503 6 3 1.6 4.8 0.00 0.00 0.00 72 1017.3
20260504042003 7 353 1.6 4.8 0.00 0.00 0.00 72 1017.3
20260504041504 7 356 0.0 3.2 0.00 0.00 0.00 72 1017.3
20260504040504 7 70 0.0 3.2 0.00 0.00 0.00 70 1017.1
20260504040002 7 52 1.6 3.2 0.00 0.00 0.00 70 1017.1
20260504035503 7 12 1.6 3.2 0.00 0.00 0.00 69 1016.9
20260504034503 7 5 1.6 3.2 0.00 0.00 0.00 69 1017.0
20260504034003 7 3 1.6 4.8 0.00 0.00 0.00 68 1017.0
20260504033502 7 11 1.6 4.8 0.00 0.00 0.00 68 1016.8
20260504033003 7 13 1.6 4.8 0.00 0.00 0.00 68 1016.8
20260504032502 7 11 1.6 3.2 0.00 0.00 0.00 67 1016.9
20260504032003 7 8 0.0 3.2 0.00 0.00 0.00 68 1016.8
20260504031504 7 68 0.0 3.2 0.00 0.00 0.00 67 1016.8
20260504031002 8 63 1.6 3.2 0.00 0.00 0.00 66 1016.8
20260504030503 8 3 1.6 3.2 0.00 0.00 0.00 65 1016.7
20260504030002 8 1 1.6 3.2 0.00 0.00 0.00 64 1016.8
20260504025503 8 3 1.6 3.2 0.00 0.00 0.00 64 1016.8
20260504025002 8 4 1.6 3.2 0.00 0.00 0.00 64 1016.7
20260504024503 8 2 1.6 3.2 0.00 0.00 0.00 64 1016.8
20260504024002 8 5 1.6 3.2 0.00 0.00 0.00 62 1016.8
20260504023503 8 6 1.6 3.2 0.00 0.00 0.00 61 1016.8
20260504022504 8 4 1.6 4.8 0.00 0.00 0.00 59 1016.7
20260504022002 8 4 1.6 4.8 0.00 0.00 0.00 60 1016.7
20260504021502 8 11 1.6 6.4 0.00 0.00 0.00 59 1016.8
20260504021003 8 6 1.6 6.4 0.00 0.00 0.00 60 1016.7
20260504020503 8 1 1.6 4.8 0.00 0.00 0.00 60 1016.8
20260504015003 9 6 1.6 4.8 0.00 0.00 0.00 60 1016.6
20260504014502 9 13 1.6 3.2 0.00 0.00 0.00 59 1016.6
20260504014003 9 24 1.6 3.2 0.00 0.00 0.00 58 1016.6
20260504013502 10 6 1.6 4.8 0.00 0.00 0.00 59 1016.5
20260504013003 10 4 1.6 4.8 0.00 0.00 0.00 57 1016.5
20260504012003 10 4 0.0 3.2 0.00 0.00 0.00 55 1016.3
20260504011503 10 4 1.6 3.2 0.00 0.00 0.00 55 1016.3
20260504011003 10 10 1.6 3.2 0.00 0.00 0.00 54 1016.3
20260504010502 10 11 1.6 4.8 0.00 0.00 0.00 53 1016.3